Location: ????????
(60.5616°N, 46.8254°E)
Time: 11:53:31
(UTC+00:00)

COSMOS 2455 - Pass Details

Date: 18 February 2020
Orbit: 901 x 909 km, 67.1° (Epoch: 09 April)

Event Time Altitude Azimuth Distance (km) Brightness Sun altitude
Exits shadow 23:48:14 46° 356° (N) 1,200 3.6 -32.8°
Drops below altitude 10° 23:53:56 10° 67° (ENE) 2,601 6.0 -32.2°
Sets 23:56:34 0° 73° (ENE) 3,544 6.9 -32.0°
